Temp
12 13 13 13 13 14 14 14 12 14 14 16 16 15 15 16 16 17 17 15 13 12 11 13 13 13 12 12 12 11 10 10 8 7 6 5 4 4 3 3 3 2 2 1
9 12 12 12 13 13 14 14 14 14 14 16 16 17 16 17 17 16 17 14 13 12 12 12 12 12 12 11 11 10 9 9 7 6 4 3 3 2 2 -0 1 1 0 -1
9 12 11 9 12 13 14 14 14 12 14 15 15 16 16 16 17 15 13 12 11 10 10 11 11 11 10 10 9 9 8 7 5 3 1 1 -0 -0 -1 -1 -1 -1 -2 -2
8 10 5 12 14 14 14 15 15 15 15 15 14 13 14 12 12 12 12 11 10 9 9 9 9 9 8 8 8 7 6 4 2 1 0 -1 -1 -1 -2 -2 -2 -2 -3 -4
5 8 10 11 13 13 13 11 13 14 13 13 12 13 10 11 10 9 9 9 8 8 7 7 7 7 7 6 6 5 3 1 0 -1 -1 -1 -2 -2 -2 -2 -3 -4 -4 -4
5 5 6 10 13 14 13 9 12 12 12 12 11 7 8 9 8 7 8 8 8 6 5 4 4 5 6 4 3 2 1 -0 -1 -1 -2 -1 -2 -2 -3 -3 -4 -4 -5 -5
7 6 8 11 13 13 9 8 10 11 11 11 9 8 8 6 4 4 5 7 8 5 4 4 4 3 2 2 1 0 -0 -1 -2 -1 -2 -2 -3 -3 -3 -3 -4 -5 -5 -6
5 5 5 12 12 11 9 10 10 10 10 9 9 8 6 6 3 2 2 5 6 4 3 3 3 2 1 0 -0 -1 -1 -2 -2 -2 -3 -3 -3 -3 -4 -4 -5 -6 -6 -7
8 6 8 11 10 12 10 9 11 9 9 10 9 6 6 4 2 1 1 4 5 4 3 2 2 1 0 -0 -1 -2 -2 -3 -3 -3 -3 -3 -3 -4 -4 -5 -6 -6 -7 -7
9 10 10 9 10 11 12 11 11 10 11 10 6 3 2 2 1 1 3 4 6 4 3 2 1 1 0 -1 -2 -2 -3 -3 -4 -4 -4 -4 -4 -4 -5 -5 -5 -6 -6 -8
7 8 10 9 9 10 10 10 10 10 10 10 8 5 5 3 2 2 3 5 6 4 3 1 0 -0 -1 -2 -2 -3 -4 -4 -4 -4 -5 -5 -5 -5 -5 -5 -5 -6 -6 -7
6 8 7 7 9 9 8 9 9 9 9 9 9 8 7 6 4 4 4 5 3 3 1 -0 -1 -1 -2 -2 -3 -4 -4 -5 -5 -5 -5 -5 -5 -5 -5 -5 -5 -5 -5 -5
6 8 8 7 8 8 8 9 9 9 8 7 8 8 7 5 5 5 4 3 2 1 1 -1 -2 -2 -2 -3 -3 -4 -4 -5 -5 -5 -5 -5 -5 -6 -5 -5 -5 -4 -5 -5
7 7 6 7 6 8 8 8 9 9 6 7 7 7 6 5 5 5 3 2 1 0 -1 -2 -2 -2 -3 -3 -3 -4 -4 -5 -5 -5 -5 -5 -6 -6 -6 -6 -6 -5 -5 -6
7 7 7 7 7 7 7 8 8 7 5 5 6 5 7 6 3 2 1 1 -0 -1 -2 -2 -3 -3 -3 -3 -3 -4 -4 -5 -5 -5 -5 -6 -6 -6 -7 -7 -7 -7 -7 -7
7 7 7 6 5 5 5 5 7 6 4 4 4 4 3 2 1 0 0 -0 -1 -2 -2 -3 -3 -3 -3 -3 -3 -4 -4 -4 -5 -5 -5 -5 -6 -6 -7 -7 -8 -8 -8 -8
7 6 7 6 5 4 5 6 7 6 5 5 3 3 2 1 0 -1 -1 -1 -1 -2 -3 -2 -3 -3 -3 -3 -3 -4 -4 -4 -4 -4 -5 -5 -6 -6 -7 -7 -8 -8 -8 -8
8 8 7 6 6 5 5 6 7 5 3 2 2 1 -0 -0 -1 -2 -2 -2 -2 -3 -2 -3 -4 -3 -3 -3 -3 -3 -3 -4 -4 -4 -4 -5 -5 -6 -6 -7 -7 -8 -8 -9
8 9 8 8 6 6 6 3 1 0 0 0 -0 -1 -2 -1 -1 -2 -2 -2 -3 -3 -3 -4 -4 -4 -3 -3 -3 -3 -3 -4 -4 -4 -4 -5 -5 -5 -5 -6 -6 -7 -8 -9
2 2 2 2 3 2 1 0 -0 -1 -1 -1 -1 -1 -2 -2 -2 -2 -2 -3 -2 -3 -3 -4 -4 -4 -3 -3 -3 -4 -4 -4 -4 -4 -5 -5 -5 -5 -5 -6 -6 -6 -7 -8
-0 0 0 0 0 0 -0 -0 -1 -1 -1 -2 -2 -2 -2 -2 -2 -2 -3 -3 -4 -3 -3 -3 -3 -4 -4 -4 -4 -4 -4 -4 -4 -5 -5 -5 -5 -5 -6 -6 -6 -6 -7 -7
-0 -0 -0 -0 -0 -0 -1 -1 -1 -2 -2 -2 -2 -3 -3 -3 -3 -2 -2 -3 -4 -4 -4 -4 -3 -4 -4 -4 -4 -4 -4 -4 -5 -5 -5 -5 -5 -6 -6 -6 -6 -7 -7 -7
-0 -0 -0 -1 -1 -1 -1 -1 -2 -2 -2 -3 -3 -3 -3 -3 -3 -4 -4 -4 -4 -4 -4 -4 -4 -4 -4 -4 -4 -4 -4 -4 -4 -5 -5 -5 -5 -5 -6 -6 -6 -6 -7 -7
-0 -1 -2 -2 -2 -2 -2 -2 -2 -3 -3 -3 -3 -2 -3 -3 -3 -2 -3 -4 -4 -4 -3 -4 -4 -4 -4 -4 -4 -4 -4 -4 -4 -4 -4 -5 -5 -5 -5 -6 -6 -6 -7 -7
-1 -1 -2 -1 -1 -2 -2 -3 -3 -3 -3 -2 -1 -1 -2 -2 -3 -4 -4 -4 -4 -4 -4 -4 -4 -4 -4 -4 -4 -4 -4 -4 -4 -4 -5 -5 -5 -5 -5 -6 -6 -6 -7 -7
-1 -1 -0 -0 -1 -1 -2 -2 -2 -3 -3 -3 -3 -2 -2 -2 -3 -3 -5 -5 -5 -5 -6 -5 -5 -5 -4 -4 -4 -4 -5 -5 -5 -5 -5 -5 -6 -6 -6 -6 -7 -7 -7 -8
1 1 1 1 1 -0 -0 -0 -2 -2 -2 -3 -3 -3 -3 -3 -4 -4 -5 -5 -5 -6 -6 -5 -5 -5 -5 -5 -5 -5 -5 -5 -5 -6 -6 -6 -6 -6 -7 -7 -7 -8 -8 -9
Height
776 779 779 781 779 777 783 783 795 782 780 761 761 764 761 757 754 752 749 753 754 758 759 759 761 763 764 765 766 767 767 767 767 769 770 772 778 781 784 787 793 802 806 810
794 778 781 783 775 779 778 777 776 776 770 760 755 751 751 750 749 746 745 752 753 756 757 759 761 761 761 762 762 761 761 764 763 764 767 771 776 781 783 789 792 800 803 807
795 779 788 799 777 774 771 769 772 778 765 757 755 749 746 743 740 745 751 754 755 756 758 760 761 757 758 759 758 759 760 760 761 762 767 772 775 778 783 788 795 796 805 807
801 792 838 769 764 766 766 762 759 757 756 753 754 752 748 748 748 749 753 755 754 752 756 759 758 757 757 757 757 759 758 759 761 761 764 768 772 776 781 786 791 796 798 808
821 801 783 768 764 766 768 770 760 758 757 755 753 749 760 758 758 759 755 755 758 759 752 758 756 755 754 755 756 758 759 759 763 765 767 771 774 780 784 789 793 797 801 806
809 816 808 770 759 757 763 781 760 760 759 756 756 776 767 762 761 761 758 755 756 758 754 758 756 755 755 753 754 757 758 761 764 766 771 776 779 783 786 790 795 800 805 811
789 801 783 758 757 757 777 781 763 761 761 760 766 764 762 761 761 765 763 754 757 759 760 757 756 755 754 752 756 756 758 761 765 767 771 775 779 783 788 792 797 801 808 813
798 806 800 751 753 763 766 759 758 759 759 760 759 761 760 757 759 763 765 762 758 762 760 756 757 754 754 753 756 757 760 762 766 770 773 776 779 784 788 793 798 803 809 812
771 775 758 749 752 750 753 756 753 757 757 753 756 761 757 755 757 759 764 755 761 757 756 758 758 753 753 755 756 758 761 765 767 771 775 778 780 785 790 794 798 803 808 813
758 743 748 750 748 748 749 749 748 748 749 749 754 756 758 756 757 756 756 755 756 756 753 756 755 753 753 754 757 758 760 765 770 772 776 780 783 785 790 794 798 804 808 812
756 749 746 743 745 746 747 747 745 745 745 746 748 750 751 755 753 752 751 750 749 751 754 753 753 753 754 754 756 760 763 766 770 775 777 782 786 788 790 795 799 803 807 811
753 748 749 746 742 741 743 744 743 743 743 743 744 744 744 747 751 754 748 747 747 752 752 753 754 755 756 756 758 760 766 770 769 776 780 784 786 791 794 797 800 803 805 808
745 742 741 739 737 737 737 736 735 737 739 741 741 741 742 747 750 752 747 745 748 751 752 754 755 755 756 757 759 762 767 770 774 778 783 785 788 790 793 797 799 803 805 809
736 736 736 733 733 731 731 730 730 731 733 735 735 736 741 743 749 750 747 745 748 751 754 754 754 754 755 757 760 763 764 769 775 779 785 787 790 794 795 797 800 803 807 809
727 725 725 725 725 724 724 723 723 724 728 732 735 735 738 743 746 747 744 746 750 753 754 754 755 755 755 758 761 764 765 769 775 780 785 788 792 796 799 801 803 806 809 812
715 715 717 720 723 723 722 721 720 719 723 727 732 734 736 740 741 745 747 750 754 754 754 755 755 754 756 759 762 766 768 770 774 779 784 789 792 796 799 803 805 807 810 813
708 712 713 716 720 715 714 712 714 715 719 720 727 730 734 738 746 750 751 752 752 753 754 755 755 756 759 761 764 767 770 773 776 780 784 788 791 795 799 802 804 807 809 813
700 703 707 712 710 711 708 711 711 711 718 724 727 730 735 742 748 750 752 752 753 754 754 755 757 758 761 763 766 768 771 774 777 780 784 787 791 794 797 800 802 805 808 812
696 699 701 704 703 702 704 711 713 716 721 725 729 735 741 746 748 748 750 752 754 755 757 758 759 761 763 765 767 770 772 775 778 781 784 787 791 794 796 799 801 804 807 810
702 703 702 702 700 702 709 713 717 722 726 728 733 739 743 745 746 747 750 751 753 756 758 760 762 763 765 768 770 772 774 777 779 782 785 788 790 793 796 798 800 803 805 808
709 709 708 708 709 710 712 717 719 725 729 732 734 738 741 744 746 749 750 752 756 758 760 762 763 765 767 769 772 774 776 778 780 783 786 788 791 793 796 798 801 803 805 807
715 714 714 714 715 716 717 720 722 726 731 735 737 740 742 744 747 748 750 753 757 759 762 763 765 767 769 771 773 775 777 779 782 784 787 789 791 794 796 798 800 802 805 807
719 719 718 718 719 721 722 724 726 730 733 736 739 741 742 743 746 749 753 756 757 760 762 764 766 768 770 772 774 776 778 780 782 785 787 789 791 793 795 797 799 802 804 806
722 722 722 722 723 724 726 729 732 734 736 738 740 742 743 744 747 749 751 755 758 760 762 764 766 768 771 772 774 777 779 781 783 785 787 789 791 793 794 796 799 801 803 805
723 724 724 724 724 727 730 732 735 736 738 741 742 744 745 746 747 751 753 756 758 760 761 763 765 768 770 772 774 776 778 780 782 784 786 788 790 792 793 796 798 799 801 803
725 724 725 725 726 728 731 734 735 738 740 743 744 745 746 747 749 752 755 757 759 760 762 763 765 767 769 771 773 775 777 779 781 783 785 787 789 791 793 795 797 799 800 802
724 724 725 726 728 729 731 733 735 738 740 742 744 746 747 749 751 753 755 757 759 760 762 763 765 767 769 771 773 774 776 779 781 783 785 787 789 791 793 795 796 798 800 801
Wind_Speed
3 6 6 5 10 8 7 7 5 11 8 22 13 7 7 8 7 7 8 8 8 7 6 9 8 4 2 8 11 20 24 24 28 27 27 28 30 31 29 28 25 24 22 22
4 3 3 10 16 9 11 12 14 13 18 10 13 15 15 13 10 9 2 7 8 7 7 8 7 5 3 7 13 17 22 25 24 28 29 31 32 29 27 25 25 25 24 20
2 4 3 8 11 15 13 14 10 10 14 13 12 14 13 14 12 6 10 7 7 7 8 6 1 1 2 6 10 15 19 19 23 28 28 27 28 28 28 28 27 26 21 22
2 5 1 7 6 7 11 13 13 13 9 8 6 9 8 8 8 9 7 6 5 7 7 8 7 3 4 7 10 13 15 19 26 30 31 32 31 31 31 32 30 29 28 22
4 6 6 14 8 3 2 10 8 4 7 6 9 5 7 11 11 7 6 6 7 7 11 8 8 4 7 10 10 12 16 21 24 25 27 27 25 26 26 25 22 24 23 19
2 5 8 5 4 5 4 7 4 6 5 7 6 4 2 5 6 5 4 5 7 8 12 9 8 5 6 6 10 15 18 22 25 26 26 24 22 20 22 24 22 23 19 18
9 4 6 6 3 9 4 5 7 5 5 5 2 4 3 5 5 11 15 9 2 7 6 6 6 4 2 5 9 13 18 23 26 27 25 25 24 25 27 26 25 23 20 21
2 3 10 6 7 6 5 4 3 3 6 6 6 6 6 8 3 2 12 14 4 7 8 6 3 1 2 5 9 13 21 25 26 25 25 26 27 28 28 28 26 25 22 20
7 7 7 5 7 3 7 5 2 2 6 5 3 5 8 6 6 6 12 8 5 9 8 4 2 1 5 8 13 21 23 24 25 24 25 27 29 27 25 26 23 22 20 20
4 12 4 4 5 4 3 4 2 3 2 5 3 5 7 4 6 4 7 5 3 10 9 0 1 3 6 11 18 23 25 24 24 25 25 25 24 26 22 21 20 19 18 18
7 4 3 10 5 2 4 4 3 5 4 6 2 6 6 6 5 10 12 3 4 5 4 2 2 3 7 15 22 22 22 23 22 21 23 23 20 21 22 22 23 21 19 22
9 3 5 6 6 5 7 6 5 6 4 5 3 6 5 4 8 12 8 5 9 4 4 1 2 4 9 16 20 22 19 18 23 21 21 20 20 18 18 17 16 18 19 19
16 15 14 13 11 9 12 12 10 8 2 5 8 4 3 7 6 6 10 8 6 2 1 3 4 6 10 16 19 20 18 18 20 20 19 19 17 19 16 13 14 17 18 19
13 10 11 6 6 6 8 7 8 4 4 4 11 7 11 10 12 10 10 9 8 3 4 5 7 9 13 17 18 19 20 22 22 21 20 18 21 20 20 20 19 18 19 23
16 16 15 12 10 9 8 9 10 9 2 6 0 6 13 11 11 11 12 9 6 5 6 6 8 9 12 16 18 20 23 22 23 22 20 21 22 20 18 20 21 21 20 21
16 16 6 1 5 8 9 11 9 9 10 10 10 11 17 18 17 12 9 8 8 6 5 6 8 9 12 15 18 20 21 23 24 24 22 21 21 20 19 20 20 22 22 23
5 4 3 4 11 19 13 10 13 15 6 11 13 19 20 20 15 11 9 7 9 9 7 7 8 10 13 15 18 18 20 21 21 22 22 22 23 21 20 19 20 21 21 21
10 8 6 6 15 13 11 7 4 12 12 16 21 24 21 17 9 12 12 12 12 10 8 8 11 13 15 16 16 18 21 22 22 22 21 21 21 21 22 21 20 20 20 20
10 11 8 10 19 11 6 9 11 17 20 23 23 17 18 15 15 16 15 14 12 10 9 10 12 14 15 15 16 19 21 21 20 20 20 21 20 18 18 18 18 19 21 23
11 9 9 10 12 15 11 15 19 19 20 24 20 16 13 13 15 15 14 10 10 10 11 14 14 14 15 15 15 17 18 18 18 17 17 17 16 16 15 14 15 17 21 22
8 7 7 8 9 14 17 17 19 17 16 16 16 14 13 15 15 16 14 9 10 11 15 14 16 16 15 14 14 15 16 16 16 17 17 17 15 15 16 16 15 14 19 21
6 5 6 8 9 11 15 17 19 19 15 14 15 16 17 16 13 10 10 13 13 14 16 15 14 14 15 14 14 14 15 15 15 15 16 15 15 15 14 14 15 15 17 19
5 6 7 8 9 10 16 16 16 15 14 14 14 15 15 16 16 14 8 13 15 17 14 14 14 15 15 13 13 13 14 15 15 15 14 15 15 15 16 17 16 16 15 17
5 6 9 13 15 13 8 12 12 11 13 12 14 14 18 17 13 12 13 16 16 15 14 14 15 15 16 14 13 15 14 13 13 14 13 14 14 14 16 16 15 15 15 17
3 4 8 8 7 8 12 13 12 12 12 12 12 14 14 14 14 16 17 16 14 13 12 13 14 16 18 12 14 16 16 15 15 14 14 14 13 13 12 13 13 13 12 12
7 6 5 4 11 14 14 13 10 12 14 11 10 12 11 11 14 13 13 14 12 11 12 14 14 15 13 13 12 14 13 13 15 15 15 13 12 11 11 12 12 12 12 12
7 8 11 11 11 15 13 10 13 12 16 15 12 12 12 12 12 13 16 13 11 11 13 13 14 12 12 12 12 13 13 14 13 13 12 12 12 9 10 10 10 10 10 10
Wind_Direction
63 40 9 316 284 282 281 266 223 270 255 278 297 280 294 298 292 286 280 112 126 133 146 136 132 148 266 287 267 238 229 218 206 194 183 178 174 170 163 159 161 167 165 161
11 78 306 282 275 288 268 264 272 282 279 284 299 302 293 290 282 285 345 128 96 90 102 119 162 185 226 272 275 254 233 223 202 189 177 172 168 164 159 156 157 159 159 159
254 171 241 281 246 252 273 270 260 261 264 278 271 269 278 280 268 96 105 93 83 73 58 31 272 52 309 295 301 263 241 212 189 173 162 156 156 161 162 163 163 163 171 175
168 59 287 242 285 282 267 270 272 280 288 274 346 336 330 32 70 73 68 72 82 85 53 15 24 4 307 302 273 258 218 186 173 171 165 164 165 164 162 168 174 177 175 173
149 196 288 288 277 262 300 299 305 314 13 14 4 7 38 33 50 42 45 49 59 58 63 10 359 323 319 294 266 223 189 180 176 163 155 156 149 157 164 163 153 159 165 167
131 168 211 232 224 294 346 286 18 39 355 359 12 23 285 8 10 355 31 46 38 42 42 31 27 350 307 256 210 190 182 175 170 164 154 161 163 157 151 149 143 157 155 161
222 219 261 250 314 275 186 241 0 338 326 3 280 197 156 65 15 334 326 341 96 71 53 40 8 350 215 185 193 189 181 172 163 167 173 166 160 159 150 148 150 153 153 160
179 161 257 203 248 232 213 198 158 8 339 321 318 169 163 158 154 297 301 297 144 108 57 32 7 50 198 179 196 182 171 164 169 171 163 165 162 157 155 153 145 144 147 151
189 214 218 229 232 170 179 196 171 325 280 308 159 224 199 194 175 178 246 294 220 110 90 24 304 178 186 196 186 169 164 165 168 170 164 165 160 158 149 151 144 142 145 152
230 253 264 299 320 338 270 191 213 251 304 357 253 212 255 231 184 177 238 267 173 125 92 115 280 234 219 193 183 171 162 163 164 157 158 161 159 159 153 151 150 154 155 155
267 297 298 285 269 300 334 320 349 327 313 298 232 255 235 251 220 202 198 211 107 95 116 158 277 239 211 190 178 164 162 157 154 154 154 153 154 158 160 171 172 169 169 167
257 249 244 252 285 324 318 307 307 299 324 352 343 337 217 227 226 236 158 99 87 126 121 177 225 204 190 183 177 161 149 150 149 151 150 150 149 158 172 178 185 195 193 194
263 269 262 262 261 259 266 276 265 257 48 6 314 250 160 158 191 163 133 122 110 134 209 209 185 179 183 177 170 159 152 149 148 149 152 148 145 137 125 156 187 199 198 189
278 281 286 273 267 287 293 294 298 272 126 8 342 208 187 152 176 157 128 124 124 159 212 196 178 180 181 174 167 161 159 158 153 154 156 152 148 141 135 129 118 124 165 168
250 255 258 257 262 271 277 275 267 262 50 339 78 197 169 154 126 107 103 104 126 166 177 173 174 166 169 172 168 169 159 155 160 159 161 154 161 161 153 149 140 137 136 146
243 245 224 239 285 286 285 290 309 307 280 220 199 129 108 111 102 94 100 134 169 164 147 165 170 153 159 171 170 170 161 163 162 161 161 159 168 169 161 158 152 155 158 158
246 233 262 324 279 277 273 236 255 258 184 169 141 124 115 109 115 128 137 140 131 124 138 145 141 145 157 166 167 165 163 165 164 164 163 164 168 171 172 167 164 171 177 179
248 227 191 176 272 267 261 251 209 125 126 125 128 124 122 132 140 141 136 126 118 118 122 135 141 144 155 164 162 163 163 163 165 163 168 169 169 174 176 176 177 174 181 180
233 255 255 212 251 246 171 125 110 112 121 122 113 109 128 138 144 136 135 130 125 115 128 145 143 143 150 158 162 163 162 161 163 166 170 171 171 177 178 181 183 181 183 180
47 49 62 60 73 109 106 108 115 116 121 120 122 130 133 134 136 131 131 117 163 153 149 149 146 150 149 152 161 164 164 162 163 166 172 174 177 180 183 181 173 180 185 188
46 50 66 74 77 83 101 119 120 119 126 129 129 132 138 141 140 140 120 107 136 147 153 151 155 149 147 146 154 158 160 161 165 167 170 174 180 181 178 176 180 187 191 195
53 58 68 76 93 92 100 114 117 120 128 135 133 139 138 135 135 131 151 152 157 156 155 155 157 157 157 156 154 161 161 163 168 171 172 175 175 179 187 195 197 200 204 204
60 81 90 90 95 95 102 107 117 131 135 139 146 150 143 143 138 129 132 156 156 159 158 160 159 161 161 165 158 164 168 172 174 175 186 189 193 198 201 204 205 205 206 204
87 96 103 113 110 101 95 104 122 134 134 144 158 160 146 120 114 168 138 151 158 164 169 168 165 166 171 164 169 170 174 179 183 183 189 199 202 206 208 208 205 208 215 215
87 121 142 139 115 112 120 125 126 133 139 147 142 150 146 147 139 143 148 151 160 164 168 173 175 174 184 187 184 183 187 191 192 193 196 198 200 204 202 200 202 205 208 209
188 181 170 173 145 142 147 153 152 158 149 159 148 158 154 155 146 150 153 153 160 166 171 178 180 176 181 180 187 192 194 196 193 192 191 189 187 184 184 189 194 198 201 205
191 161 136 127 148 161 164 181 157 157 166 167 147 163 158 157 157 156 155 158 158 158 160 161 160 166 171 172 176 177 176 175 173 173 175 176 176 190 195 195 197 200 199 204